Hourly Weather Guadalajara

Today, 1 October, Thursday

Time Temperature Precipitation Wind Pressure Humidity
00:00 +14°C° 0 mm 0 mps 633 mmHg 68%
01:00 +13°C° 0 mm 0 mps 632 mmHg 69%
02:00 +13°C° 0 mm 0 mps 632 mmHg 69%
03:00 +13°C° 0 mm 1 mps 632 mmHg 67%
04:00 +13°C° 0 mm 1 mps 632 mmHg 65%
05:00 +12°C° 0 mm 1 mps 631 mmHg 64%
06:00 +14°C° 0 mm 1 mps 632 mmHg 57%
07:00 +16°C° 0 mm 1 mps 633 mmHg 50%
08:00 +19°C° 0 mm 1 mps 635 mmHg 43%
09:00 +20°C° 0 mm 2 mps 635 mmHg 37%
10:00 +24°C° 0 mm 2 mps 635 mmHg 32%
11:00 +26°C° 0 mm 2 mps 636 mmHg 27%
12:00 +27°C° 0 mm 2 mps 635 mmHg 25%
13:00 +27°C° 0 mm 2 mps 635 mmHg 24%
14:00 +28°C° 0 mm 2 mps 634 mmHg 23%
15:00 +27°C° 0 mm 2 mps 634 mmHg 30%
16:00 +25°C° 0 mm 1 mps 633 mmHg 37%
17:00 +23°C° 0 mm 1 mps 632 mmHg 44%
18:00 +21°C° 0 mm 1 mps 633 mmHg 45%
19:00 +20°C° 0 mm 1 mps 633 mmHg 46%
20:00 +18°C° 0 mm 1 mps 633 mmHg 47%
21:00 +16°C° 0 mm 1 mps 633 mmHg 47%
22:00 +15°C° 0 mm 2 mps 633 mmHg 46%
23:00 +14°C° 0 mm 2 mps 632 mmHg 45%

Tomorrow, 2 October, Friday

Time Temperature Precipitation Wind Pressure Humidity
00:00 +13°C° 0 mm 2 mps 632 mmHg 48%
01:00 +13°C° 0 mm 2 mps 632 mmHg 50%
02:00 +12°C° 0 mm 1 mps 632 mmHg 52%
03:00 +11°C° 0 mm 1 mps 631 mmHg 54%
04:00 +11°C° 0 mm 1 mps 631 mmHg 57%
05:00 +11°C° 0 mm 1 mps 631 mmHg 60%
06:00 +13°C° 0 mm 2 mps 632 mmHg 56%
07:00 +15°C° 0 mm 2 mps 633 mmHg 53%
08:00 +17°C° 0 mm 2 mps 634 mmHg 49%
09:00 +19°C° 0 mm 3 mps 634 mmHg 44%
10:00 +21°C° 0 mm 3 mps 635 mmHg 39%
11:00 +23°C° 0 mm 4 mps 635 mmHg 33%
12:00 +25°C° 0 mm 4 mps 635 mmHg 32%
13:00 +26°C° 0 mm 3 mps 634 mmHg 31%
14:00 +27°C° 0 mm 3 mps 634 mmHg 30%
15:00 +25°C° 0 mm 3 mps 633 mmHg 37%
16:00 +24°C° 0 mm 2 mps 632 mmHg 43%
17:00 +23°C° 0 mm 1 mps 632 mmHg 50%
18:00 +21°C° 0 mm 1 mps 632 mmHg 51%
19:00 +18°C° 0 mm 2 mps 632 mmHg 53%
20:00 +16°C° 0 mm 2 mps 632 mmHg 55%
21:00 +15°C° 0 mm 2 mps 632 mmHg 57%
22:00 +14°C° 0 mm 2 mps 632 mmHg 59%
23:00 +13°C° 0 mm 2 mps 632 mmHg 61%

Day after tomorrow, 3 October, Saturday

Time Temperature Precipitation Wind Pressure Humidity
00:00 +13°C° 0 mm 2 mps 632 mmHg 64%
01:00 +12°C° 0 mm 2 mps 631 mmHg 68%
02:00 +11°C° 0 mm 1 mps 631 mmHg 71%
03:00 +11°C° 0 mm 1 mps 631 mmHg 74%
04:00 +10°C° 0 mm 1 mps 631 mmHg 76%
05:00 +10°C° 0 mm 1 mps 631 mmHg 78%
06:00 +12°C° 0 mm 1 mps 632 mmHg 72%
07:00 +14°C° 0 mm 2 mps 633 mmHg 66%
08:00 +16°C° 0 mm 2 mps 634 mmHg 59%
09:00 +18°C° 0 mm 2 mps 634 mmHg 54%
10:00 +20°C° 0 mm 2 mps 634 mmHg 48%
11:00 +24°C° 0 mm 2 mps 634 mmHg 42%
12:00 +25°C° 0 mm 2 mps 634 mmHg 40%
13:00 +26°C° 0 mm 2 mps 633 mmHg 37%
14:00 +27°C° 0 mm 1 mps 633 mmHg 34%
15:00 +26°C° 0 mm 1 mps 632 mmHg 41%
16:00 +24°C° 0 mm 1 mps 632 mmHg 48%
17:00 +22°C° 0 mm 1 mps 631 mmHg 55%
18:00 +21°C° 0 mm 1 mps 631 mmHg 59%
19:00 +17°C° 0 mm 0 mps 631 mmHg 63%
20:00 +15°C° 0 mm 0 mps 631 mmHg 66%
21:00 +14°C° 0 mm 0 mps 631 mmHg 67%
22:00 +14°C° 0 mm 0 mps 631 mmHg 69%
23:00 +13°C° 0 mm 0 mps 632 mmHg 70%

4 October, Sunday

Time Temperature Precipitation Wind Pressure Humidity
00:00 +14°C° 0 mm 1 mps 631 mmHg 72%
01:00 +14°C° 0 mm 1 mps 631 mmHg 74%
02:00 +13°C° 0 mm 1 mps 631 mmHg 75%
03:00 +13°C° 0 mm 1 mps 631 mmHg 77%
04:00 +13°C° 0 mm 1 mps 631 mmHg 79%
05:00 +12°C° 0 mm 1 mps 631 mmHg 81%
06:00 +14°C° 0 mm 1 mps 632 mmHg 74%
07:00 +18°C° 0 mm 1 mps 633 mmHg 68%
08:00 +20°C° 0 mm 1 mps 634 mmHg 61%
09:00 +22°C° 0 mm 1 mps 635 mmHg 54%
10:00 +24°C° 0 mm 1 mps 635 mmHg 48%
11:00 +27°C° 0 mm 1 mps 635 mmHg 41%
12:00 +27°C° 0 mm 1 mps 635 mmHg 38%
13:00 +28°C° 0 mm 1 mps 634 mmHg 36%
14:00 +28°C° 0 mm 1 mps 634 mmHg 33%
15:00 +27°C° 0 mm 1 mps 633 mmHg 39%
16:00 +25°C° 0 mm 1 mps 633 mmHg 45%
17:00 +24°C° 0 mm 1 mps 632 mmHg 51%
18:00 +20°C° 0 mm 0 mps 632 mmHg 53%
19:00 +18°C° 0 mm 0 mps 632 mmHg 55%
20:00 +16°C° 0 mm 0 mps 632 mmHg 57%
21:00 +18°C° 0 mm 1 mps 632 mmHg 59%
22:00 +16°C° 0 mm 1 mps 633 mmHg 60%
23:00 +16°C° 0 mm 1 mps 633 mmHg 61%

5 October, Monday

Time Temperature Precipitation Wind Pressure Humidity
00:00 +15°C° 0 mm 1 mps 633 mmHg 63%
01:00 +15°C° 0 mm 1 mps 632 mmHg 65%
02:00 +14°C° 0 mm 1 mps 632 mmHg 66%
03:00 +14°C° 0 mm 1 mps 632 mmHg 65%
04:00 +13°C° 0 mm 1 mps 632 mmHg 64%
05:00 +12°C° 0 mm 1 mps 632 mmHg 62%
06:00 +14°C° 0 mm 1 mps 633 mmHg 57%
07:00 +16°C° 0 mm 1 mps 634 mmHg 51%
08:00 +17°C° 0 mm 2 mps 634 mmHg 45%
09:00 +20°C° 0 mm 2 mps 635 mmHg 41%
10:00 +23°C° 0 mm 2 mps 635 mmHg 38%
11:00 +25°C° 0 mm 2 mps 636 mmHg 34%
12:00 +26°C° 0 mm 2 mps 635 mmHg 33%
13:00 +27°C° 0 mm 2 mps 634 mmHg 32%
14:00 +28°C° 0 mm 1 mps 634 mmHg 31%
15:00 +26°C° 0 mm 1 mps 633 mmHg 38%
16:00 +25°C° 0 mm 1 mps 633 mmHg 45%
17:00 +23°C° 0 mm 1 mps 632 mmHg 52%
18:00 +19°C° 0 mm 0 mps 632 mmHg 55%
19:00 +18°C° 0 mm 0 mps 632 mmHg 57%
20:00 +16°C° 0 mm 0 mps 632 mmHg 60%
21:00 +16°C° 0 mm 1 mps 632 mmHg 61%
22:00 +15°C° 0 mm 1 mps 632 mmHg 62%
23:00 +15°C° 0 mm 1 mps 632 mmHg 63%

6 October, Tuesday

Time Temperature Precipitation Wind Pressure Humidity
00:00 +14°C° 0 mm 1 mps 632 mmHg 62%
01:00 +14°C° 0 mm 1 mps 632 mmHg 62%
02:00 +13°C° 0 mm 1 mps 631 mmHg 61%
03:00 +13°C° 0 mm 1 mps 631 mmHg 61%
04:00 +12°C° 0 mm 1 mps 631 mmHg 60%
05:00 +12°C° 0 mm 1 mps 631 mmHg 59%
06:00 +14°C° 0 mm 1 mps 632 mmHg 55%
07:00 +16°C° 0 mm 1 mps 633 mmHg 50%
08:00 +19°C° 0 mm 1 mps 634 mmHg 45%
09:00 +21°C° 0 mm 1 mps 634 mmHg 39%
10:00 +24°C° 0 mm 1 mps 635 mmHg 34%
11:00 +26°C° 0 mm 1 mps 635 mmHg 29%
12:00 +27°C° 0 mm 1 mps 635 mmHg 28%
13:00 +27°C° 0 mm 1 mps 634 mmHg 26%
14:00 +28°C° 0 mm 1 mps 633 mmHg 25%
15:00 +26°C° 0 mm 1 mps 633 mmHg 32%
16:00 +22°C° 0 mm 0 mps 632 mmHg 38%
17:00 +20°C° 0 mm 0 mps 631 mmHg 44%
18:00 +19°C° 0 mm 0 mps 631 mmHg 46%
19:00 +17°C° 0 mm 0 mps 632 mmHg 47%
20:00 +16°C° 0 mm 0 mps 632 mmHg 48%
21:00 +16°C° 0 mm 0 mps 632 mmHg 49%
22:00 +15°C° 0 mm 0 mps 632 mmHg 50%
23:00 +15°C° 0 mm 0 mps 632 mmHg 51%
Show more

We Need Your Consent

Meteoprog and our Service Providers may store and access personal data such as cookies, device identifiers or other similar technologies on your device and process such data to personalise content and ads, as well as provide social media features and to analyse the traffic.

  • Store and/or access information on your device

    Cookies, device identifiers or other information can be stored or accessed on your device for the purposes indicated above.

  • Personalised ads and content, ad and content measurement, audience insights, and products development

    Ads and content can be personalised based on a profile. More data can be added to better personalise ads and content. Ad and content performance can be measured. Insights about the audience who saw the ads and content can be derived. Such data can be used to develop or improve user’s experience, systems and software.

By clicking ‘I Agree’ you will allow the use of indicated cookies, device identifiers, web beacons or other similar technologies. Your settings can be changed in the browser on your device.

For certain purposes, legitimate interests may be relied on, rather than consent. You can read more about this in our Privacy and Cookie Policy.